Valentine, NE

9:46 PM CDT on May 25, 2018 (GMT -0500)
Miller Field

Weather History for KVTN - March, 2014

Change the Weather History Date:

Thursday, March 13, 2014

  Actual Average Record
Temperature  
Mean Temperature 46 °F 35 °F  
Max Temperature 66 °F 48 °F 81 °F (2012)
Min Temperature 26 °F 22 °F -13 °F (1950)
Degree Days  
Heating Degree Days 19 30  
Month to date heating degree days 412  
Since 1 July heating degree days 5648  
Cooling Degree Days 0 0  
Month to date cooling degree days 0  
Year to date cooling degree days 0  
Moisture  
Dew Point 24 °F    
Average Humidity 48    
Maximum Humidity 85    
Minimum Humidity 12    
Precipitation  
Precipitation 0.00 in 0.04 in 1.04 in (1973)
Month to date precipitation 0.37  
Year to date precipitation 1.11  
Snow  
Snow 0.00 in 0.20 in 5.00 in (2011)
Month to date snowfall 3.0  
Since 1 July snowfall 25.1  
Snow Depth -    
Sea Level Pressure  
Sea Level Pressure 29.88 in    
Wind  
Wind Speed 11 mph (West)    
Max Wind Speed 20 mph    
Max Gust Speed 29 mph    
Visibility 10 miles    
Events      
T = Trace of Precipitation, MM = Missing Value Source: NWS Daily Summary

Daily Weather History Graph

Daily Weather History Graph

Search for Another Location

Airport or City:

Astronomy

Mar. 13, 2014 Rise Set
Actual Time 7:57 AM CDT 7:46 PM CDT
Civil Twilight 7:29 AM CDT 8:14 PM CDT
Nautical Twilight 6:56 AM CDT 8:47 PM CDT
Astronomical Twilight 6:23 AM CDT 9:20 PM CDT
Moon 5:11 PM CDT (3/13) 6:08 AM CDT (3/13)
Length of Visible Light 12h 45m
Length of Day
11h 48m
Waxing Gibbous, 91% of the Moon is Illuminated
Mar 13
Waxing Gibbous
Mar 16
Full
Mar 23
Last Quarter
Mar 30
New
Apr 7
First Quarter

Hourly Weather History & Observations

Time (CDT) Temp. Windchill Dew Point Humidity Pressure Visibility Wind Dir Wind Speed Gust Speed Precip Events Conditions
12:52 AM 34.0 °F 26.0 °F 26.1 °F 73% 30.09 in 10.0 mi WSW 10.4 mph - N/A   Clear
1:52 AM 32.0 °F 24.2 °F 25.0 °F 75% 30.08 in 10.0 mi WSW 9.2 mph - N/A   Clear
2:52 AM 30.0 °F 22.4 °F 25.0 °F 82% 30.07 in 10.0 mi WSW 8.1 mph - N/A   Clear
3:52 AM 27.0 °F 20.5 °F 23.0 °F 85% 30.06 in 10.0 mi West 5.8 mph - N/A   Clear
4:52 AM 27.0 °F 18.7 °F 23.0 °F 85% 30.04 in 10.0 mi WSW 8.1 mph - N/A   Clear
5:52 AM 28.0 °F 20.8 °F 24.1 °F 85% 30.02 in 10.0 mi WSW 6.9 mph - N/A   Clear
6:52 AM 28.0 °F 21.7 °F 23.0 °F 81% 30.01 in 10.0 mi West 5.8 mph - N/A   Clear
7:52 AM 27.0 °F 21.6 °F 21.9 °F 81% 30.01 in 10.0 mi WSW 4.6 mph - N/A   Clear
8:52 AM 30.0 °F - 25.0 °F 82% 29.99 in 10.0 mi Calm Calm - N/A   Clear
9:52 AM 39.9 °F 35.8 °F 26.1 °F 58% 29.96 in 10.0 mi WSW 5.8 mph - N/A   Clear
10:52 AM 46.9 °F - 26.1 °F 44% 29.93 in 10.0 mi WSW 11.5 mph - N/A   Clear
11:52 AM 53.1 °F - 25.0 °F 34% 29.89 in 10.0 mi WSW 17.3 mph - N/A   Clear
12:52 PM 57.9 °F - 23.0 °F 26% 29.83 in 10.0 mi WSW 19.6 mph - N/A   Clear
1:52 PM 62.1 °F - 21.9 °F 21% 29.79 in 10.0 mi WSW 19.6 mph 28.8 mph N/A   Clear
2:52 PM 64.0 °F - 21.0 °F 19% 29.74 in 10.0 mi WSW 16.1 mph 27.6 mph N/A   Clear
3:52 PM 64.9 °F - 21.9 °F 19% 29.71 in 10.0 mi West 18.4 mph - N/A   Clear
4:52 PM 64.9 °F - 21.9 °F 19% 29.70 in 10.0 mi WSW 13.8 mph 24.2 mph N/A   Clear
5:52 PM 64.9 °F - 21.0 °F 19% 29.68 in 10.0 mi WNW 16.1 mph 23.0 mph N/A   Clear
6:52 PM 63.0 °F - 24.1 °F 23% 29.69 in 10.0 mi WNW 10.4 mph - N/A   Clear
7:52 PM 57.0 °F - 23.0 °F 27% 29.72 in 10.0 mi NNW 15.0 mph - N/A   Clear
8:52 PM 54.0 °F - 21.9 °F 29% 29.74 in 10.0 mi NNW 15.0 mph - N/A   Clear
9:52 PM 51.1 °F - 21.9 °F 32% 29.75 in 10.0 mi NNW 18.4 mph 25.3 mph N/A   Clear
10:52 PM 50.0 °F - 24.1 °F 36% 29.76 in 10.0 mi North 17.3 mph 25.3 mph N/A   Clear
11:52 PM 48.0 °F - 25.0 °F 41% 29.79 in 10.0 mi NNW 12.7 mph - N/A   Mostly Cloudy